Simultaneous Nadir Overpasses (SNOs) Predictions

Prediction of SNOs between FY3D and NOAA-19 Satellite Orbit:

Table of predicted SNOs for the next 14.0 days since TLE Epoch: 12/21/2019
Index Date (FY3D) Time (FY3D) Lat,Lon (FY3D) SZA (FY3D ) Date (NOAA-19) Time (NOAA-19) Lat,Lon (NOAA-19) SZA (NOAA-19 ) Distance(km) Time Diff (sec)
1 01/02/2020 13:40:12 79.72, -60.19 104.46 01/02/2020 13:38:58 79.73, -60.14 104.50 1.30 74
2 01/02/2020 14:30:56 -79.72, 107.11 75.54 01/02/2020 14:29:54 -79.72, 106.97 75.51 2.83 62
3 01/02/2020 15:21:42 79.75, -85.81 104.51 01/02/2020 15:20:59 79.72, -85.73 104.49 3.41 43
4 01/02/2020 16:12:25 -79.72, 81.77 75.55 01/02/2020 16:11:54 -79.73, 81.68 75.52 2.36 31
5 01/02/2020 17:03:11 79.75,-111.15 104.49 01/02/2020 17:02:59 79.74,-111.03 104.48 2.58 12
6 01/02/2020 17:53:55 -79.75, 56.14 75.51 01/02/2020 17:53:55 -79.73, 56.09 75.52 2.64 0
7 01/02/2020 18:44:40 79.74,-136.49 104.48 01/02/2020 18:45:00 79.73,-136.62 104.48 2.68 20
8 01/02/2020 19:35:24 -79.74, 30.80 75.52 01/02/2020 19:35:55 -79.74, 30.80 75.53 0.13 31
9 01/02/2020 20:26:09 79.74,-161.83 104.47 01/02/2020 20:27:00 79.75,-161.91 104.47 1.96 51
10 01/02/2020 21:16:53 -79.74, 5.46 75.53 01/02/2020 21:17:55 -79.76, 5.50 75.54 2.54 62




NCC Satellite Simultaneous Nadir Overpasses (SNOs) Prediction Service
